EZ58KD Weather Reports


time (UTC)temp
C
wind
direction
speed
KPH
gust
KPH
rain 1hr
cm
rain 24hr
cm
rain mn
cm
humidity
%
barometer
mb
20260505022329 8 89 9.7 11.3 0.00 0.00 0.00 80 1011.3
20260505021330 8 360 6.4 8.0 0.00 0.00 0.00 80 1011.3
20260505020428 8 360 8.0 8.0 0.00 0.00 0.00 78 1011.4
20260505015528 8 360 9.7 11.3 0.00 0.00 0.00 77 1011.4
20260505014528 8 360 4.8 8.0 0.00 0.00 0.00 75 1011.3
20260505013628 8 1 6.4 8.0 0.00 0.00 0.00 74 1011.1
20260505012629 8 45 6.4 8.0 0.00 0.00 0.00 74 1011.1
20260505010727 8 90 0.0 0.0 0.00 0.00 0.00 74 1011.0
20260505005728 8 82 8.0 9.7 0.00 0.00 0.00 75 1010.8
20260505004827 8 45 9.7 11.3 0.00 0.00 0.00 74 1010.8
20260505003830 8 67 12.9 14.5 0.00 0.00 0.00 75 1010.7
20260505002829 9 90 14.5 17.7 0.00 0.00 0.00 75 1010.6
20260505001927 9 90 14.5 16.1 0.00 0.00 0.00 74 1010.4
20260505000930 9 90 16.1 17.7 0.00 0.00 0.00 72 1010.3
20260504235928 10 112 9.7 11.3 0.00 0.00 0.00 71 1010.1
20260504234027 10 45 6.4 8.0 0.00 0.00 0.00 71 1009.7
20260504233027 10 45 11.3 12.9 0.00 0.00 0.00 72 1009.4
20260504232027 10 360 11.3 11.3 0.00 0.00 0.00 71 1009.5
20260504231028 10 360 6.4 8.0 0.00 0.00 0.00 72 1009.4
20260504225028 11 45 12.9 14.5 0.00 0.00 0.00 71 1009.1
20260504224030 11 45 6.4 8.0 0.00 0.00 0.00 71 1009.0
20260504223029 11 22 3.2 4.8 0.00 0.00 0.00 71 1009.0
20260504221228 11 112 9.7 11.3 0.00 0.00 0.00 66 1009.0
20260504220328 11 112 12.9 12.9 0.00 0.00 0.00 64 1009.0
20260504215329 12 90 8.0 9.7 0.00 0.00 0.00 62 1008.8
20260504214427 12 90 12.9 14.5 0.00 0.00 0.00 60 1008.8
20260504214329 12 90 12.9 14.5 0.00 0.00 0.00 60 1008.8
20260504213427 12 90 14.5 16.1 0.00 0.00 0.00 61 1008.7
20260504212527 12 90 14.5 16.1 0.00 0.00 0.00 59 1008.7
20260504211529 13 90 12.9 14.5 0.00 0.00 0.00 58 1008.8
20260504210527 12 90 12.9 16.1 0.00 0.00 0.00 62 1008.6
20260504205627 12 97 9.7 12.9 0.00 0.00 0.00 62 1008.7
20260504204628 12 90 8.0 9.7 0.00 0.00 0.00 63 1008.7
20260504203628 11 90 14.5 16.1 0.00 0.00 0.00 65 1008.5
20260504202627 11 90 11.3 11.3 0.00 0.00 0.00 65 1008.5
20260504201628 11 90 6.4 8.0 0.00 0.00 0.00 64 1008.5
20260504194727 11 90 12.9 12.9 0.00 0.03 0.00 66 1008.5
20260504193729 10 90 8.0 9.7 0.00 0.03 0.00 70 1008.6
20260504192828 10 90 6.4 8.0 0.00 0.03 0.00 69 1008.8
20260504191926 10 90 8.0 9.7 0.00 0.03 0.00 69 1008.9
20260504190928 11 135 9.7 11.3 0.00 0.05 0.00 68 1009.0
20260504185928 10 172 11.3 12.9 0.00 0.05 0.00 69 1009.1
20260504184928 10 180 8.0 9.7 0.00 0.05 0.00 66 1009.6
20260504183928 11 176 12.9 16.1 0.00 0.05 0.00 65 1009.5
20260504182929 10 167 14.5 17.7 0.00 0.08 0.00 67 1009.6
20260504181928 9 135 11.3 12.9 0.00 0.10 0.00 69 1009.6
20260504180029 9 135 3.2 4.8 0.00 0.18 0.00 70 1009.3
20260504174028 9 90 12.9 16.1 0.00 0.25 0.00 69 1009.0
20260504173029 9 90 19.3 22.5 0.00 0.33 0.00 68 1008.9
20260504172928 9 94 19.3 22.5 0.00 0.33 0.00 69 1009.1
20260504171928 9 90 20.9 25.7 0.00 0.38 0.00 69 1008.8
20260504170927 9 90 19.3 22.5 0.00 0.43 0.00 69 1008.8
20260504140928 8 90 12.9 14.5 0.00 1.12 0.00 60 1010.4
20260504110329 5 198 16.1 17.7 0.00 1.85 0.00 67 1010.6
20260504081628 5 180 14.5 14.5 0.00 2.31 0.00 71 1009.6
20260504080629 5 180 14.5 16.1 0.00 2.34 0.00 72 1009.5
20260504044127 6 180 24.1 27.4 0.00 2.72 0.00 63 1008.3
20260504043127 6 182 16.1 17.7 0.00 2.72 0.00 61 1008.3
20260504040227 6 196 24.1 27.4 0.00 2.72 0.00 58 1008.0
20260504035237 6 201 22.5 25.7 0.00 2.72 2.72 59 1007.9
20260504034240 6 202 24.1 30.6 0.00 2.72 2.72 59 1007.8
20260504033238 6 202 25.7 30.6 0.00 2.72 2.72 58 1007.8
20260504032237 6 214 27.4 30.6 0.00 2.72 2.72 59 1007.7
20260504030337 6 200 27.4 32.2 0.00 2.72 2.72 58 1007.5
20260504025340 6 208 25.7 30.6 0.00 2.72 2.72 59 1007.4
20260504023337 6 202 29.0 32.2 0.00 2.72 2.72 60 1007.2